This is the latest recevied weather packets stored in our database for station/object KJ4EWA. If no packets are shown the sender has not sent any weather packets the latest 10 day(s).
| Time | Temp. | Humidity | Pressure | Rain* | Wind** | Luminosity | Snow |
|---|---|---|---|---|---|---|---|
| 1777940000 | 21.67° C | 62% | 1018.1 hPa | 0 mm | - | 7 W/m² | - |
| 1777939698 | 21.67° C | 61% | 1018.2 hPa | 0 mm | - | 10 W/m² | - |
| 1777939396 | 21.67° C | 60% | 1018.2 hPa | 0 mm | - | 12 W/m² | - |
| 1777939092 | 21.67° C | 59% | 1018.2 hPa | 0 mm | - | 15 W/m² | - |
| 1777938789 | 22.22° C | 59% | 1018.4 hPa | 0 mm | - | 17 W/m² | - |
| 1777938486 | 22.22° C | 58% | 1018.4 hPa | 0 mm | - | 20 W/m² | - |
| 1777938184 | 22.22° C | 59% | 1018.1 hPa | 0 mm | - | 22 W/m² | - |
| 1777937880 | 22.22° C | 59% | 1018.4 hPa | 0 mm | - | 23 W/m² | - |
| 1777937575 | 22.22° C | 58% | 1018.2 hPa | 0 mm | - | 26 W/m² | - |
| 1777937272 | 22.78° C | 57% | 1018.1 hPa | 0 mm | - | 27 W/m² | - |
| 1777936969 | 22.78° C | 56% | 1018 hPa | 0 mm | - | 28 W/m² | - |
| 1777936666 | 22.78° C | 56% | 1018.2 hPa | 0 mm | - | 29 W/m² | - |
| 1777936363 | 22.78° C | 55% | 1018.1 hPa | 0 mm | - | 91 W/m² | - |
| 1777936058 | 23.33° C | 54% | 1018.2 hPa | 0 mm | - | 105 W/m² | - |
| 1777935757 | 23.33° C | 54% | 1018.5 hPa | 0 mm | - | 115 W/m² | - |
| 1777935456 | 23.33° C | 53% | 1018.5 hPa | 0 mm | - | 127 W/m² | - |
| 1777935151 | 23.89° C | 53% | 1018.2 hPa | 0 mm | - | 144 W/m² | - |
| 1777934849 | 23.89° C | 51% | 1018.3 hPa | 0 mm | - | 122 W/m² | - |
| 1777934546 | 24.44° C | 50% | 1018.3 hPa | 0 mm | - | 166 W/m² | - |
| 1777934242 | 23.89° C | 50% | 1018.4 hPa | 0 mm | - | 158 W/m² | - |
| 1777933938 | 23.89° C | 50% | 1018.5 hPa | 0 mm | - | 212 W/m² | - |
| 1777933635 | 24.44° C | 50% | 1018 hPa | 0 mm | - | 218 W/m² | - |
| 1777933332 | 24.44° C | 49% | 1018.4 hPa | 0 mm | - | 236 W/m² | - |
| 1777933029 | 23.89° C | 50% | 1018.3 hPa | 0 mm | - | 209 W/m² | - |
| 1777932726 | 23.89° C | 49% | 1018.4 hPa | 0 mm | - | 212 W/m² | - |
* Rain latest hour (hover to see other rain measurements)
** Current wind speed in m/s (hover to see current wind gust speed)